User: anonymous   Login
Location: Ottawa
(45.4170°N, 75.7000°W)
Time: 11:40:20
(UTC-04:00)
Language:

Aureole 3 Rocket - Orbit

View from above orbital plane
View from above orbital plane
View from above satellite
View from above satellite

Ground track
Ground track

The orbit data is extracted from the following two-line orbital elements,

1 12849U 81094B   14304.08692213  .00001964  00000-0  18022-3 0   288
2 12849 082.4948 182.7933 0911717 114.1056 255.8138 13.48405829612430
Epoch (UTC): 31 October 2014 02:05:10
Eccentricity: 0.0911717
inclination: 82.4948°
perigee height: 398 km
apogee height: 1758 km
right ascension of ascending node: 182.7933°
argument of perigee: 114.1056°
revolutions per day: 13.48405829
mean anomaly at epoch: 255.8138°
orbit number at epoch: 61243

The dashed part of the orbit path shows where the satellite is in the earth's shadow,  

DLR